Theta_e
316 317 317 317 316 314 313 312 311 310 309 322 319 324 322 311 311 320 324 323 322 315 306 308 307 304 304 307 306 306 305 305 306 306 307 305 307 306 305 304 303 304 304 303 303 303 300 302 301 302 303 302 304 306 306 308 307 306 306 307 311 311 305 301 302 307 307 309 310 311 312 311 309 309 310 309 308 310 309 308 311 308 308 306 306 303 311
316 317 317 317 315 313 313 311 311 311 309 313 318 324 316 315 314 317 325 322 321 311 302 302 303 304 305 305 304 306 305 305 305 305 306 305 305 304 304 305 307 304 307 305 302 305 298 301 302 301 303 302 306 306 306 307 308 307 307 306 312 304 308 305 300 300 301 303 306 307 309 309 307 306 309 310 311 312 312 312 313 307 308 308 304 299 310
316 316 317 316 315 314 312 311 311 311 310 311 318 320 318 317 315 316 316 320 316 307 308 305 303 303 303 303 302 303 304 305 306 306 305 308 307 306 304 306 307 305 307 304 305 305 303 300 302 303 303 303 307 306 306 307 308 311 315 316 315 307 306 306 297 295 293 292 293 297 300 303 307 309 309 310 309 310 309 305 309 301 309 310 306 305 318
316 316 317 316 315 314 312 311 311 311 310 307 319 323 321 311 305 309 311 314 312 311 311 309 305 304 303 302 302 303 302 305 307 307 306 308 307 308 307 307 307 305 304 303 302 302 305 303 301 303 302 304 305 306 307 306 307 313 314 313 313 307 308 309 305 300 300 302 306 305 309 307 304 306 308 309 310 310 311 310 306 302 308 310 310 310 319
316 317 317 316 316 314 313 311 311 311 309 307 317 324 319 315 306 307 304 310 310 309 311 308 306 304 305 302 302 300 301 303 304 307 303 307 306 306 306 305 303 303 303 302 301 303 302 305 304 303 303 304 305 307 307 307 310 314 313 312 311 308 305 304 304 304 303 303 303 303 305 306 306 305 306 309 309 309 308 306 304 312 306 304 314 318 312
316 317 318 317 315 314 313 311 311 310 309 306 318 318 317 308 313 314 316 307 302 304 306 310 306 306 306 303 304 301 301 302 301 305 306 307 307 303 306 305 305 304 304 303 300 302 303 303 301 303 303 305 305 305 306 306 312 312 308 311 309 306 302 303 305 302 303 303 303 305 306 307 307 307 307 308 310 310 308 308 310 311 306 303 316 320 313
315 316 318 318 316 315 314 312 310 310 308 310 325 319 316 318 317 316 318 310 309 311 312 311 307 305 305 304 304 301 301 300 303 303 303 303 304 306 301 302 304 305 306 305 302 305 300 299 304 305 303 303 304 303 305 307 309 308 307 310 312 310 303 304 304 302 303 304 305 306 306 306 307 308 309 311 310 310 310 310 311 311 314 313 315 319 315
315 316 317 318 317 315 314 312 310 310 307 317 325 321 318 315 316 312 318 316 313 314 311 309 307 304 309 303 303 303 302 301 303 305 304 301 302 306 303 303 305 305 305 307 303 304 305 304 302 305 305 304 306 304 303 303 308 308 305 306 313 308 302 308 305 303 301 303 305 306 306 306 306 308 309 309 311 312 314 314 315 315 312 313 313 316 321
314 315 317 318 317 315 315 312 311 310 309 324 321 319 322 321 324 321 319 309 312 313 308 306 306 303 305 303 303 304 303 303 305 304 307 304 303 304 303 305 305 306 305 305 303 304 306 305 304 305 305 302 304 304 304 306 304 305 305 306 309 308 305 306 304 302 300 303 303 304 305 306 306 306 307 308 309 311 313 312 318 314 313 316 315 315 317
314 315 316 318 317 316 314 312 311 310 310 325 321 314 324 327 325 326 321 311 313 308 307 308 304 301 306 306 305 304 304 305 306 303 306 307 308 307 306 306 305 305 305 303 304 306 306 305 306 307 307 308 307 308 306 306 304 303 304 308 305 307 306 303 302 300 300 302 303 302 303 303 301 303 306 308 309 312 314 317 319 319 319 315 311 314 328
314 315 316 317 318 318 316 314 313 310 315 318 321 317 320 319 321 323 322 311 308 309 306 304 304 308 306 309 307 307 305 306 307 304 303 307 307 309 308 307 305 304 304 306 309 309 308 309 309 310 309 308 307 307 307 307 307 305 304 305 306 308 307 304 307 299 299 301 302 303 300 295 297 306 311 312 309 310 311 313 318 320 322 320 322 326 330
314 314 315 317 317 318 317 315 313 310 311 315 318 321 321 322 323 323 320 308 306 309 307 304 304 305 305 306 306 305 304 304 304 310 304 305 306 308 308 307 309 304 307 313 311 310 310 310 309 310 308 307 307 306 306 305 305 308 306 304 304 305 305 306 308 301 298 302 302 298 293 297 304 308 308 310 313 311 313 318 319 321 322 322 323 324 327
314 314 315 316 318 318 317 315 314 311 310 315 319 321 323 322 321 322 320 314 306 307 304 305 308 307 307 306 305 306 306 307 307 308 307 306 305 306 306 307 306 306 312 311 309 308 305 304 305 305 303 305 305 305 304 304 304 306 306 306 305 304 304 306 304 305 302 299 298 289 294 301 305 306 308 310 311 311 312 316 318 320 320 322 323 325 327
314 314 314 316 317 318 318 316 314 313 310 312 318 322 323 324 321 322 321 316 308 310 311 306 306 305 306 305 306 306 307 307 308 309 306 307 305 305 306 307 309 311 311 313 310 308 304 304 300 301 302 303 303 301 302 304 304 304 304 305 306 305 306 304 302 305 296 298 297 296 302 301 302 302 305 307 306 307 308 309 313 320 321 322 324 324 325
315 314 314 316 317 318 318 317 315 314 312 309 319 322 325 326 325 321 325 321 309 309 312 303 306 307 307 306 307 305 306 306 306 306 308 308 307 307 308 309 311 312 312 310 307 307 303 303 298 296 299 297 292 296 302 302 305 305 305 305 307 308 306 307 302 301 304 298 295 296 295 293 299 305 308 311 312 311 311 312 314 318 322 325 325 324 325
315 315 315 316 317 318 318 318 316 314 312 309 319 323 326 327 326 325 323 321 316 303 308 313 312 309 307 307 308 306 305 306 306 305 306 307 306 309 310 312 312 313 310 308 310 305 303 297 296 296 294 297 299 297 297 302 301 304 306 306 306 306 307 308 302 301 300 299 295 293 292 296 302 306 309 311 312 312 312 311 307 313 321 326 325 324 324
315 315 315 316 317 317 318 318 316 314 312 309 314 320 325 328 325 323 321 321 317 309 312 314 314 313 309 307 308 308 309 307 306 303 303 305 306 308 309 312 313 312 310 308 307 304 299 299 301 300 301 301 298 298 302 300 299 301 303 304 303 304 304 303 300 301 301 300 295 293 300 300 307 309 309 311 312 311 310 301 302 311 313 323 325 324 324
315 315 315 316 316 316 318 318 317 315 312 310 313 318 325 328 327 326 323 317 314 310 313 314 312 308 307 310 307 311 311 310 309 308 307 308 308 307 308 311 308 309 311 307 307 303 301 299 296 297 297 305 306 303 293 298 296 298 299 300 299 300 301 302 300 299 299 299 299 301 301 307 310 311 311 312 311 309 301 295 307 313 316 319 327 327 327
315 315 315 316 316 316 317 318 317 315 314 309 315 321 323 326 328 329 323 317 315 309 313 316 315 313 313 315 315 313 315 315 311 306 304 305 308 313 311 310 311 305 308 306 306 303 300 301 304 302 299 301 305 297 303 295 294 302 302 300 301 300 300 300 301 298 298 299 296 298 303 308 312 314 313 315 310 302 297 308 315 315 316 321 327 328 328
315 315 315 315 315 316 317 318 316 315 314 310 311 316 321 325 327 325 320 315 314 312 313 315 316 314 315 314 310 309 310 312 311 308 306 304 312 311 308 305 310 309 305 309 302 305 301 299 301 302 300 301 303 306 301 301 305 302 302 301 301 298 299 297 297 300 300 299 296 295 290 307 313 313 314 315 307 307 311 313 315 317 318 320 325 327 330
315 315 315 315 315 316 317 317 317 316 315 313 309 315 320 326 325 326 327 324 317 311 311 318 319 318 318 317 317 317 315 311 311 308 311 311 319 313 300 302 307 308 304 304 300 300 303 300 302 302 306 304 303 305 296 298 301 306 306 302 302 307 301 298 299 302 297 296 294 294 305 310 314 312 306 310 312 313 315 314 314 316 321 324 325 328 330
315 315 315 315 315 316 316 317 317 316 314 313 310 317 319 325 326 325 324 324 320 315 315 319 320 321 320 320 320 321 320 317 318 321 314 311 316 314 312 311 311 311 311 311 304 304 305 307 307 303 300 302 306 302 305 298 295 303 307 307 298 309 305 307 299 306 304 301 304 310 313 314 314 313 313 314 316 316 316 316 316 317 319 323 326 326 327
315 315 315 315 315 316 316 317 317 316 314 314 313 318 317 319 323 326 325 325 326 322 322 320 321 319 320 320 321 322 322 322 322 321 322 314 311 313 312 311 311 316 317 315 310 309 308 306 303 307 305 304 304 302 303 302 300 303 302 307 308 310 312 312 312 306 312 313 313 314 314 314 314 315 316 316 317 318 318 318 317 319 321 324 324 326 326
314 314 315 315 315 315 316 316 317 316 314 314 313 315 317 320 321 324 325 322 317 314 316 319 316 312 314 314 318 320 321 320 321 322 324 322 310 311 314 317 318 316 317 322 319 313 310 310 309 309 303 308 307 302 298 298 302 305 304 304 308 310 311 310 304 308 305 299 314 312 313 314 315 315 316 318 318 317 318 318 319 320 322 324 325 326 327
314 314 315 314 315 315 316 316 316 316 315 313 314 317 318 320 324 322 322 313 312 313 306 311 315 316 318 320 322 320 320 322 323 324 321 322 317 310 312 320 322 319 315 318 321 315 313 307 307 305 302 310 310 301 307 303 303 309 303 305 305 306 314 309 307 306 305 306 311 313 314 315 315 315 315 315 316 316 317 318 320 322 323 323 324 325 325
314 314 314 314 314 315 315 316 316 315 314 313 312 315 317 322 324 324 323 324 321 319 308 306 311 318 320 318 317 319 322 322 322 321 321 320 318 320 321 321 320 324 321 320 318 313 310 308 310 309 304 308 313 306 306 310 308 309 309 308 311 311 312 303 309 306 307 312 313 314 315 314 315 316 317 318 317 316 316 317 318 320 321 322 323 324 325
314 314 314 314 314 315 315 316 316 315 314 313 315 318 318 322 324 322 323 323 317 308 312 307 313 316 318 316 319 321 319 320 320 318 319 320 320 321 321 321 318 319 318 315 315 313 311 309 307 305 308 310 314 311 310 309 308 306 305 309 314 310 306 309 307 304 304 308 311 314 308 309 312 314 316 317 319 318 317 317 317 316 318 320 320 321 324
314 314 314 314 314 314 315 315 316 315 312 312 315 319 320 320 325 324 325 326 322 309 308 309 310 314 319 316 320 320 320 321 319 317 317 317 319 318 318 317 318 314 314 312 309 309 307 304 304 311 311 313 309 306 313 313 311 307 307 310 314 310 313 309 305 305 304 310 315 316 315 313 314 316 318 318 319 319 318 317 316 317 317 318 318 319 320
314 314 314 313 314 314 315 315 315 314 312 311 318 321 321 323 325 322 322 326 326 323 318 316 316 312 307 314 320 319 320 320 318 318 317 316 316 317 317 318 316 314 314 312 312 310 308 311 313 309 309 318 312 306 306 302 302 301 309 314 316 317 320 317 314 314 314 316 315 317 317 314 315 317 318 319 320 319 318 318 319 319 318 318 318 318 317
314 314 313 314 313 314 314 315 315 313 312 315 320 320 318 320 324 325 322 324 327 325 316 309 305 311 319 319 317 318 317 319 318 317 317 317 317 318 319 318 318 318 317 315 314 309 311 312 313 314 316 320 312 308 302 303 302 306 314 317 316 317 317 318 319 316 313 317 318 318 318 317 318 318 319 319 320 320 318 318 318 320 320 320 318 318 318
313 313 313 313 313 314 314 315 315 312 311 317 320 314 309 306 318 323 318 324 326 324 320 316 310 316 315 320 321 317 318 318 318 317 317 318 319 320 320 321 319 319 313 314 313 313 315 310 311 313 317 317 315 308 304 303 301 307 312 315 316 315 316 316 319 319 318 318 319 318 318 317 318 318 318 318 319 319 319 319 320 319 319 320 320 320 319
313 313 313 313 313 314 315 315 314 313 315 314 317 316 317 318 322 322 319 319 324 323 317 309 308 309 309 315 318 320 319 318 318 318 320 320 318 321 321 320 318 320 318 314 315 314 312 315 313 313 312 316 313 308 307 305 303 307 313 315 316 317 317 316 316 317 319 319 318 315 313 315 316 316 315 317 318 319 318 319 319 320 320 321 321 321 320
313 313 312 313 313 314 315 315 313 312 315 315 312 311 312 311 310 312 317 322 324 323 321 313 304 309 307 312 318 317 319 317 316 316 315 322 317 319 316 320 320 318 318 317 310 310 315 314 314 310 315 317 311 308 306 305 307 313 314 315 316 316 316 318 318 318 318 318 318 312 311 313 315 317 317 318 318 318 318 318 318 319 320 319 318 320 321
313 313 313 313 314 314 314 313 312 311 312 312 315 318 322 313 315 309 323 326 324 322 321 312 307 305 307 316 310 316 319 313 313 315 310 318 321 317 314 315 317 313 316 312 316 313 314 314 311 311 313 312 313 307 300 307 312 313 314 315 316 316 316 316 316 315 316 316 317 317 317 317 317 318 317 315 315 316 317 318 317 315 316 317 317 317 318
312 312 312 313 314 313 312 311 314 316 316 316 319 323 320 308 313 314 320 327 315 312 312 312 313 305 305 307 305 312 319 315 311 315 310 315 320 315 315 311 314 307 314 318 313 312 311 311 315 308 305 312 308 303 305 308 310 313 314 314 315 315 315 313 314 315 315 316 315 315 315 316 315 313 313 312 312 313 312 312 313 312 310 314 316 317 317
312 313 314 313 311 311 315 313 316 317 315 316 319 320 314 313 314 329 330 330 324 313 308 310 309 305 305 302 301 312 321 314 317 316 317 317 315 318 316 312 306 310 317 313 308 311 308 315 310 303 310 304 299 305 307 310 311 313 314 313 315 315 314 313 314 315 315 315 315 314 314 313 312 312 312 312 312 312 311 310 311 311 310 311 313 315 316
313 314 313 311 313 315 314 316 319 320 318 323 320 319 316 322 328 330 327 326 327 327 314 310 305 306 307 307 312 316 315 306 315 312 313 311 309 315 313 310 306 312 311 309 308 307 312 316 308 304 304 300 305 311 313 313 312 313 313 315 316 316 316 316 316 315 313 313 313 313 312 311 310 311 309 309 310 311 310 310 310 310 309 309 310 312 314
313 312 313 312 313 311 310 314 318 323 319 316 317 320 321 321 314 314 312 310 316 316 315 311 305 311 314 310 304 316 313 309 314 309 311 314 310 309 313 309 309 309 302 305 309 316 313 309 307 303 305 310 313 315 315 315 316 317 316 317 317 317 316 316 315 313 311 310 310 310 309 308 307 308 306 306 308 308 308 309 311 311 311 310 310 312 313
311 311 312 314 313 309 310 318 323 316 322 321 323 315 312 317 312 305 308 311 310 304 314 308 305 311 308 305 310 316 315 310 308 310 305 313 309 304 310 302 309 306 300 302 307 314 303 305 306 305 302 308 310 314 316 316 319 319 319 319 318 318 317 316 315 313 312 311 311 312 308 307 306 307 309 309 309 310 310 310 310 310 310 311 311 312 312
309 308 310 312 312 314 320 318 316 319 321 314 315 314 306 312 307 300 312 301 301 310 309 301 312 312 310 307 309 307 317 312 307 305 307 309 312 306 308 306 309 304 296 299 304 310 302 296 303 301 299 304 309 317 318 318 317 318 318 318 318 318 318 316 315 316 316 314 312 310 311 309 310 308 307 307 307 307 308 309 310 311 311 311 312 311 311
310 313 313 311 316 319 320 321 322 321 315 311 310 312 309 300 308 312 306 301 299 304 310 311 312 311 313 314 312 308 315 319 317 316 312 306 313 311 304 302 311 302 298 298 307 307 305 301 300 297 298 306 309 316 317 317 317 317 318 319 318 317 316 316 315 315 313 312 311 311 311 311 310 310 309 310 309 310 310 310 309 310 311 311 311 312 313
315 315 318 321 321 322 321 319 318 313 313 313 305 298 303 305 310 308 309 299 299 308 307 310 306 309 309 311 313 315 314 321 317 313 309 305 308 306 304 305 305 298 294 306 309 305 302 293 294 296 303 309 318 316 317 316 317 317 316 316 315 315 315 315 314 313 312 311 311 310 310 311 311 310 311 310 310 310 310 310 310 311 311 312 312 312 312
306 311 316 318 317 315 317 306 312 312 298 297 296 294 302 297 302 302 304 309 315 311 311 318 316 319 318 320 314 318 314 318 313 310 307 304 308 308 304 300 301 293 301 308 303 300 296 293 294 298 306 311 316 315 317 318 317 316 315 315 315 315 314 313 312 312 312 311 310 310 310 310 311 311 312 312 311 311 311 310 310 310 310 311 311 311 312
317 317 314 316 310 311 312 294 311 306 296 298 296 292 298 298 302 306 304 306 311 309 313 309 311 310 307 314 312 310 313 313 313 312 309 311 305 303 302 296 298 306 307 301 300 295 297 300 301 303 311 315 314 316 316 316 315 314 313 314 314 313 313 312 311 310 310 311 311 311 311 311 311 311 311 311 310 309 308 309 309 309 310 310 309 310 311
313 311 307 305 300 305 299 291 307 300 293 297 300 301 300 297 302 303 304 313 312 311 314 314 312 311 310 315 316 314 312 308 315 307 303 305 302 304 299 298 305 304 299 296 299 300 300 298 304 306 311 311 314 315 316 316 314 313 312 311 311 311 311 310 310 309 310 310 310 310 309 310 309 309 308 308 309 309 308 307 308 308 308 308 309 309 310
310 303 301 294 290 296 296 292 295 292 302 305 301 304 304 306 307 307 313 315 314 314 312 313 313 314 311 313 309 307 311 311 304 305 308 306 300 298 305 308 305 299 298 297 294 292 296 300 302 304 310 315 315 315 314 314 314 313 311 309 310 310 310 310 310 309 310 310 310 309 309 309 308 307 307 308 308 308 308 308 308 308 308 307 307 307 309
310 310 303 300 294 297 305 293 296 302 305 306 308 308 309 311 313 314 315 316 315 315 316 316 315 314 310 309 310 310 311 310 305 308 308 301 300 303 306 301 296 297 293 290 294 297 299 302 304 310 316 316 314 314 313 312 312 311 311 311 310 309 309 309 310 309 310 310 309 309 308 308 307 307 307 306 307 307 307 308 309 309 309 308 309 309 309
300 307 306 292 291 297 294 300 307 308 308 310 310 312 313 315 312 311 314 317 317 317 315 314 311 312 311 315 312 305 307 308 305 306 306 303 305 300 296 298 297 299 300 298 298 301 301 304 307 314 315 315 314 312 311 310 310 311 311 309 309 308 308 308 309 309 310 309 309 308 308 307 307 307 306 306 306 306 307 307 308 309 308 309 308 309 308
313 301 298 297 302 303 303 307 305 304 307 310 310 311 312 311 311 313 315 317 315 314 315 313 311 309 306 309 306 306 303 308 299 298 305 302 298 293 294 291 295 293 301 302 301 302 305 309 314 315 314 313 313 312 311 311 310 310 308 308 308 309 309 309 309 310 309 309 309 308 307 307 307 306 306 306 305 306 307 307 307 307 308 308 307 307 307
304 302 306 302 302 303 307 308 306 304 308 309 309 309 312 311 311 314 318 315 317 315 314 313 314 307 307 306 299 303 300 306 304 301 301 298 299 300 298 294 297 297 300 305 304 305 307 312 314 313 313 312 312 311 310 309 309 309 308 309 309 309 309 310 310 310 309 309 308 307 307 307 306 306 305 305 306 307 307 307 307 307 308 308 307 307 307
311 306 305 310 305 304 304 300 301 303 305 307 309 310 311 311 313 314 318 317 315 313 310 306 308 305 300 298 296 293 298 307 303 301 299 299 303 301 298 297 300 302 303 306 307 308 312 314 312 312 312 311 311 311 310 310 309 309 309 309 309 309 309 310 310 309 309 309 308 305 306 306 306 307 308 308 307 306 306 306 307 308 308 308 308 308 307
300 297 302 306 308 308 307 309 308 308 309 311 310 312 313 312 315 319 322 318 314 308 306 309 307 302 296 295 301 305 306 302 299 302 299 303 305 301 301 302 304 305 306 307 308 310 311 313 315 313 313 311 310 311 310 310 309 309 308 308 308 309 309 309 309 309 308 308 308 307 307 307 307 307 307 307 307 306 305 305 306 307 307 307 307 308 309
Wind_Speed
21 21 20 20 20 21 21 21 21 22 24 8 8 5 4 5 5 5 2 3 5 7 2 3 3 2 5 3 3 1 1 4 3 4 5 2 3 3 5 6 1 5 3 3 4 1 4 3 4 6 7 8 7 6 6 4 5 7 2 4 4 2 5 6 7 4 3 5 4 4 7 8 12 13 13 12 14 13 11 10 4 5 7 8 7 7 5
21 21 20 20 20 21 21 20 20 19 18 6 7 5 1 1 0 4 2 1 4 6 5 5 3 4 5 3 7 4 6 7 6 6 8 6 5 5 3 5 7 4 3 2 3 2 3 2 3 5 1 5 4 5 6 5 3 5 5 4 4 6 3 6 7 7 7 6 5 9 10 10 10 10 11 13 12 16 15 11 6 8 8 9 7 8 3
21 21 20 20 20 21 21 20 20 19 17 8 4 4 3 1 1 1 3 2 4 4 4 2 2 4 4 4 4 4 4 5 5 7 8 5 5 2 6 5 2 4 1 3 2 3 3 5 3 4 3 7 3 5 6 6 4 3 5 7 2 4 2 4 8 10 9 10 12 12 13 13 11 12 10 12 12 14 11 10 7 6 5 8 6 6 5
20 21 20 20 20 21 21 21 20 19 17 11 4 4 4 5 5 5 3 2 3 3 1 3 1 4 5 4 4 0 5 5 4 3 7 7 5 5 2 2 1 2 2 2 2 4 2 2 4 3 5 3 4 5 5 6 7 5 3 6 5 2 2 2 2 5 4 4 5 6 2 9 11 10 11 11 14 14 12 9 11 10 8 8 9 8 4
20 20 20 19 20 21 22 22 21 20 16 8 4 4 3 3 4 1 4 4 2 1 2 2 3 1 0 1 1 3 2 3 5 6 2 6 4 3 5 3 2 2 0 2 3 2 5 6 5 3 1 3 2 1 4 4 8 4 5 3 4 3 4 4 1 3 3 1 2 3 2 7 6 6 12 12 12 14 13 13 11 5 10 9 5 8 9
20 20 21 20 19 20 21 23 23 22 18 8 4 3 2 3 2 1 4 3 1 5 4 2 3 3 4 3 2 2 2 1 3 5 6 1 4 2 1 2 4 2 2 1 2 2 4 2 4 2 3 3 3 5 2 5 7 4 2 1 4 4 4 2 3 4 4 3 4 3 3 3 4 0 2 9 10 11 14 13 13 6 9 8 6 9 9
20 21 21 20 19 19 21 23 24 24 23 8 5 4 2 2 2 2 1 3 3 3 3 1 2 5 1 3 2 4 2 5 5 5 3 3 5 4 1 3 3 2 1 2 4 1 4 5 3 3 3 4 3 1 4 3 7 6 3 3 3 4 2 1 1 5 6 6 5 4 6 6 6 5 4 1 6 8 10 10 5 8 4 2 5 5 4
19 20 20 19 19 18 20 22 24 25 27 10 3 6 4 3 3 3 2 1 1 2 3 3 5 5 2 3 3 1 3 5 4 4 5 3 4 2 4 5 5 4 2 2 2 5 7 5 3 3 3 3 4 3 6 6 5 6 5 4 3 4 3 4 3 3 6 6 6 5 5 7 8 10 9 7 1 3 1 2 4 4 8 5 4 7 4
18 19 21 19 19 17 18 20 23 26 24 3 5 5 6 3 3 3 4 5 2 1 3 4 5 4 6 3 6 3 5 6 6 7 4 5 5 4 7 5 6 5 8 8 8 5 5 4 5 3 5 5 5 5 5 7 6 6 5 5 3 5 3 4 4 5 7 4 4 6 5 5 8 11 12 10 7 1 1 2 3 4 3 5 5 6 5
18 18 21 20 18 16 16 18 20 24 24 4 5 5 4 2 2 3 4 3 2 3 3 3 5 5 3 2 7 2 7 7 5 7 4 5 6 5 4 3 1 5 6 8 7 5 4 5 4 4 4 4 4 5 5 7 7 6 6 4 4 5 3 6 5 7 1 3 1 3 5 6 4 9 9 9 4 5 3 1 0 3 5 5 4 3 6
17 18 20 20 18 15 15 16 17 20 14 7 6 6 6 6 4 3 3 4 4 2 4 5 6 5 5 5 7 4 8 6 0 2 4 2 5 3 2 1 1 4 6 6 5 2 4 4 4 3 3 3 4 3 3 6 6 6 6 5 3 4 4 5 2 7 4 2 3 2 5 9 2 6 5 6 7 6 6 5 6 4 4 6 3 4 2
16 17 19 20 17 14 13 13 14 13 14 6 5 3 5 5 5 4 4 6 4 2 5 2 1 4 6 7 6 8 7 3 5 1 7 5 5 2 0 2 4 3 5 2 4 5 5 4 4 3 2 2 3 4 5 6 6 4 5 6 5 5 4 3 2 6 9 5 5 5 8 3 6 4 6 5 4 6 6 5 3 5 3 5 4 3 3
16 16 17 19 18 14 12 12 12 11 12 8 5 4 5 3 4 4 4 5 3 5 5 4 2 3 4 8 7 6 6 7 7 7 7 5 4 3 4 4 3 6 2 2 4 5 4 3 1 1 1 2 2 2 3 4 6 6 6 6 5 4 4 3 5 3 4 7 5 8 4 4 3 4 8 8 2 6 7 4 5 3 6 5 4 4 4
16 16 16 18 19 14 13 11 11 11 10 10 5 4 4 4 5 4 3 4 3 1 1 4 5 6 8 9 9 10 10 9 7 5 6 3 4 4 3 3 4 2 1 1 2 4 4 3 5 5 5 4 3 4 3 2 5 6 7 6 4 5 4 5 5 3 8 8 9 4 4 6 5 1 7 10 8 9 8 3 7 9 5 5 3 2 3
15 15 15 17 18 14 14 11 11 11 11 13 6 5 3 3 4 4 3 4 2 2 3 4 6 7 9 10 10 9 7 7 6 6 6 3 4 4 4 4 1 1 1 4 5 5 6 2 5 5 3 4 3 3 1 1 1 3 5 3 2 3 5 3 5 5 5 9 10 7 5 9 4 5 5 7 7 7 6 4 6 10 8 5 2 2 3
14 13 14 15 18 17 15 13 10 11 11 14 6 3 2 3 3 4 4 4 3 6 3 4 2 7 9 8 6 4 6 4 5 6 5 3 4 5 4 2 2 2 3 2 2 4 5 5 4 4 3 0 4 2 3 1 2 3 2 3 1 1 2 3 7 4 8 8 10 9 8 2 4 7 10 10 7 8 2 6 3 8 9 6 1 3 2
14 13 13 14 16 17 16 14 9 10 9 11 7 5 2 3 4 4 5 3 4 3 4 1 1 1 6 6 4 5 3 4 3 2 3 5 3 3 3 2 2 1 2 4 4 4 5 5 3 3 3 1 4 2 1 1 2 2 2 1 1 1 2 4 6 5 7 8 8 7 2 5 7 10 10 10 7 4 5 6 4 7 11 8 4 1 5
15 13 13 13 14 16 17 15 10 11 10 10 8 5 3 2 3 5 4 3 4 3 4 2 2 5 4 2 3 4 2 4 3 1 1 5 3 2 3 1 3 3 3 5 3 4 2 3 4 5 3 3 2 3 0 2 2 4 4 5 3 1 0 2 3 5 3 3 6 3 6 5 10 11 11 8 3 4 7 3 4 10 10 8 5 1 2
15 13 13 13 13 15 16 15 9 10 11 10 10 5 5 2 3 4 5 4 4 2 4 3 2 4 3 1 4 3 2 4 2 2 4 5 3 2 1 2 4 2 4 2 4 3 3 2 2 3 2 6 4 1 2 1 2 1 4 2 3 2 2 2 3 3 3 5 8 3 8 4 9 11 8 7 8 4 2 5 6 8 9 7 6 1 3
14 13 13 12 12 14 15 14 8 9 11 9 8 5 4 1 1 3 5 3 2 2 4 3 3 3 2 1 3 4 5 3 0 3 1 2 3 4 5 4 4 2 4 3 4 1 4 4 2 1 3 4 2 2 3 4 2 4 3 3 4 5 4 2 2 1 3 2 6 7 4 7 11 16 6 10 5 5 5 8 8 7 7 8 7 2 3
13 12 12 11 11 12 14 14 8 8 9 9 9 6 3 4 2 2 4 5 5 2 5 3 0 3 2 4 6 6 5 3 1 2 4 3 2 4 2 2 4 2 1 3 3 4 2 2 4 2 4 3 5 4 1 4 3 3 4 4 4 5 4 2 3 5 4 3 1 2 6 5 9 10 6 7 6 7 8 7 7 7 6 5 4 2 2
13 12 12 11 11 12 12 13 10 7 9 9 11 5 5 3 1 2 3 4 4 3 5 3 2 3 5 5 5 5 5 6 6 5 1 3 2 3 4 1 1 2 2 2 2 2 3 1 1 3 5 4 3 1 2 4 2 4 2 4 2 6 5 5 4 6 5 5 4 5 4 3 5 6 5 5 7 7 7 6 7 7 6 7 5 3 2
13 12 11 11 10 11 12 13 10 6 7 9 9 4 5 5 3 3 3 4 4 2 1 3 3 3 3 6 5 5 4 3 4 3 5 2 3 3 2 2 3 1 1 3 5 4 2 3 2 2 1 1 2 3 3 5 2 4 2 4 4 3 3 2 3 6 6 8 6 3 4 5 5 5 5 6 7 8 7 7 6 7 7 6 6 6 1
12 11 11 11 10 10 11 13 10 6 7 7 8 6 5 5 5 6 4 5 4 4 4 5 6 6 4 6 4 3 2 4 5 4 3 3 5 3 3 0 2 3 1 2 3 3 2 2 3 2 2 4 3 5 3 5 2 3 3 5 3 4 1 3 0 5 5 3 4 5 5 5 6 6 7 7 8 9 8 8 7 6 7 7 6 6 4
11 11 10 10 9 10 11 12 10 7 6 8 9 6 6 5 2 4 4 3 4 6 6 6 3 4 3 2 1 2 5 4 2 2 2 3 4 6 3 5 3 3 5 2 2 2 1 3 4 4 3 3 3 1 4 3 4 1 3 5 4 5 1 3 4 1 2 6 5 5 5 6 7 6 6 8 9 10 10 8 7 7 7 8 6 4 6
11 10 10 10 9 9 10 11 9 7 6 7 7 5 4 4 4 3 5 5 3 3 6 7 6 3 2 4 4 4 5 4 2 2 2 2 2 1 7 5 5 3 4 1 1 1 1 1 1 1 2 3 2 4 2 4 4 1 4 5 4 3 3 0 1 1 7 8 6 4 5 7 8 9 8 8 8 8 10 10 10 9 9 9 9 9 7
11 10 9 9 8 9 9 10 9 7 6 7 7 5 5 4 3 4 4 5 3 4 4 5 6 4 4 6 4 2 1 2 2 5 6 5 6 6 7 7 7 4 4 3 2 1 1 1 3 1 2 4 1 2 1 3 1 3 3 4 1 4 3 3 3 5 5 3 5 1 4 4 6 7 8 8 8 9 9 10 11 12 10 8 7 8 7
10 10 9 8 8 8 9 10 9 7 5 7 8 5 4 4 2 2 3 4 4 3 4 6 7 6 2 6 5 2 2 1 3 6 6 7 6 6 6 5 4 3 3 3 4 3 3 5 3 3 2 3 4 4 0 2 2 4 4 3 0 2 4 3 4 5 3 4 5 3 5 6 6 5 5 6 6 7 9 10 10 10 10 9 7 6 5
10 9 8 7 7 9 9 10 9 7 7 9 5 4 5 6 3 2 3 3 4 5 1 5 6 7 6 4 2 3 2 1 3 5 6 6 6 5 5 4 2 2 2 1 2 1 0 3 2 1 1 3 4 3 4 6 6 5 4 6 2 4 3 4 6 7 8 5 5 4 4 5 5 5 4 5 6 5 6 7 7 8 8 8 8 7 5
10 8 7 6 7 8 9 9 7 6 6 6 4 5 5 4 3 2 1 3 3 4 5 7 8 4 3 2 4 3 4 3 4 5 5 5 5 4 4 3 4 2 3 2 1 2 3 2 3 3 2 2 3 1 5 2 4 5 6 5 5 4 3 4 4 3 4 5 4 4 4 4 4 4 4 5 5 6 6 7 7 7 7 7 7 6 6
9 8 7 7 7 7 8 8 6 3 6 5 4 4 6 5 4 3 1 3 3 4 3 4 3 5 4 2 1 4 4 4 4 5 6 5 5 4 3 2 3 2 2 2 0 4 1 3 3 3 2 2 3 3 3 3 5 5 7 7 5 4 3 3 4 5 5 4 3 3 2 3 2 3 5 6 6 5 5 6 5 5 6 5 4 4 4
9 8 7 7 7 7 8 6 4 4 5 5 5 2 4 4 3 3 2 4 3 4 5 6 4 6 4 4 3 1 2 4 4 4 3 1 3 2 3 2 2 3 3 1 2 3 1 2 1 3 3 2 3 2 3 4 5 4 9 7 6 4 4 5 4 4 3 2 1 3 3 3 4 4 4 5 5 5 6 5 5 6 4 3 2 2 3
7 7 7 7 7 8 7 4 3 4 5 8 15 15 15 14 12 9 5 3 4 3 3 4 5 5 4 5 4 4 2 4 4 4 3 2 2 2 2 2 3 3 2 3 2 0 2 1 1 4 3 1 3 2 4 4 1 7 9 8 7 6 6 5 4 3 2 2 2 4 2 1 3 3 3 3 3 4 4 5 5 4 2 3 4 3 1
8 7 7 6 7 7 4 2 4 6 8 5 4 4 4 5 5 4 3 3 3 2 3 4 5 6 4 4 6 6 4 5 5 4 4 2 1 3 2 3 2 3 2 3 2 2 2 2 3 1 3 4 2 3 4 2 5 7 7 8 7 7 6 6 5 4 3 2 2 3 4 3 2 1 1 2 3 3 3 3 4 4 5 4 3 3 3
7 6 6 8 6 1 1 3 4 5 4 4 2 5 5 1 3 5 3 2 3 4 3 2 3 5 6 6 6 6 2 5 5 3 3 3 1 2 2 4 3 4 3 1 3 2 2 1 1 4 4 3 4 4 4 3 6 7 7 7 8 7 7 7 6 4 4 3 3 2 2 2 2 2 1 2 3 4 5 5 4 6 5 4 3 3 3
6 6 6 2 6 3 3 4 4 4 4 4 4 6 7 6 6 3 2 2 3 2 5 4 4 7 5 6 7 5 3 4 2 3 0 2 3 1 2 2 5 2 2 3 2 3 3 3 3 4 4 4 4 4 0 2 6 8 8 8 9 8 8 7 6 7 5 5 4 3 3 2 2 2 0 0 1 3 4 4 4 5 5 5 3 3 3
6 4 6 5 3 3 5 3 3 4 1 4 5 7 5 6 2 3 3 3 3 2 3 3 7 6 5 2 4 4 6 6 4 4 4 5 2 2 3 3 3 2 3 4 4 4 3 1 4 5 4 4 3 1 1 3 4 7 9 8 8 6 5 5 7 7 7 6 6 5 4 3 3 2 1 1 2 2 4 4 4 4 5 6 6 4 3
4 6 3 4 5 5 4 5 3 4 5 0 1 4 4 4 3 3 3 4 1 2 2 3 6 2 2 4 4 6 5 3 4 5 4 2 3 3 2 3 1 2 4 3 2 3 2 3 4 6 5 3 2 3 4 4 3 3 5 7 8 7 6 6 8 7 7 7 7 6 5 4 3 1 2 3 3 4 5 4 5 5 5 6 6 6 5
5 3 4 4 5 5 3 6 4 1 3 4 5 2 2 1 3 3 3 1 2 5 2 5 5 4 5 6 3 3 3 2 6 5 5 4 3 4 3 5 3 3 1 4 4 3 5 5 4 4 7 4 6 7 8 6 5 4 5 7 7 7 7 7 7 8 7 4 1 4 2 1 2 2 2 4 4 4 5 5 5 6 6 6 6 7 7
4 5 5 5 3 4 4 5 3 3 4 4 2 3 4 3 4 2 2 2 3 2 2 6 2 4 5 5 6 6 3 5 6 6 5 4 0 2 2 2 3 4 3 5 3 4 4 2 2 2 6 3 2 5 5 7 7 6 6 7 7 7 7 6 6 3 3 3 3 2 2 2 2 4 4 5 5 6 7 7 6 6 6 7 7 7 8
4 2 4 4 6 5 5 4 4 3 4 4 3 2 2 2 3 1 3 5 5 4 3 2 4 5 4 3 5 5 4 2 1 2 2 3 2 1 4 3 2 3 4 3 3 3 3 4 4 4 5 2 3 5 5 6 7 8 7 7 7 7 7 6 6 5 5 4 3 3 3 3 4 5 5 6 7 7 8 8 8 8 9 9 9 9 8
1 2 3 2 3 4 4 4 4 3 1 1 2 2 2 2 3 3 3 4 5 4 6 5 7 7 8 7 3 4 5 2 1 2 3 4 3 4 1 2 3 4 2 3 2 3 3 3 3 4 2 3 6 6 6 6 7 8 9 8 8 7 8 7 6 5 4 2 1 2 2 4 5 5 5 6 6 7 7 8 9 9 9 10 9 10 10
4 4 3 5 5 4 4 3 2 2 1 2 1 1 3 2 5 5 5 3 0 3 6 3 2 5 5 2 5 1 3 2 4 4 5 3 3 2 3 2 2 3 1 3 3 3 4 4 5 4 4 5 5 6 6 6 7 8 9 8 8 7 7 7 6 5 3 2 2 2 3 4 4 4 4 5 6 7 7 7 8 9 9 9 9 10 10
2 4 4 5 5 4 3 3 2 2 0 1 2 3 6 6 6 5 4 5 5 5 7 7 8 8 8 5 4 5 4 3 2 1 2 2 3 4 3 3 5 3 2 4 4 6 6 6 6 4 4 6 4 6 7 8 8 9 9 8 8 8 7 6 5 3 3 2 1 1 2 3 4 4 4 5 6 8 8 8 9 9 10 10 10 10 10
6 4 3 4 1 1 0 0 2 2 3 4 4 3 6 6 6 8 4 4 4 5 8 6 8 8 7 6 4 3 3 4 3 5 4 4 4 3 4 3 3 2 4 5 5 5 4 6 5 5 5 6 7 7 7 8 9 9 10 10 9 8 7 6 4 3 2 1 1 2 2 2 3 4 5 6 7 7 8 9 8 9 9 9 10 10 10
5 3 3 3 1 2 1 1 1 2 4 3 5 4 4 1 1 5 4 3 3 6 8 7 7 6 7 6 4 5 5 4 6 4 3 3 4 5 2 3 1 5 5 5 5 5 7 5 3 4 6 7 8 8 8 8 8 9 10 9 9 8 6 5 4 2 2 1 1 2 3 3 4 5 6 7 6 7 7 8 8 8 8 9 10 10 10
2 1 1 0 2 2 3 2 5 3 1 5 3 2 2 2 2 3 3 2 3 5 6 6 6 5 7 7 4 3 4 4 5 4 3 4 5 3 1 5 6 5 5 4 7 7 5 3 3 3 7 8 9 9 9 9 9 9 8 8 8 7 6 5 4 3 2 1 1 3 3 3 4 5 6 6 6 6 7 8 8 8 9 9 9 9 9
1 1 2 1 2 3 4 4 1 1 2 2 2 1 1 1 4 5 4 2 2 6 7 7 7 5 5 3 3 4 5 4 4 4 4 3 1 3 2 4 6 5 5 6 7 5 4 3 2 5 6 7 9 10 10 9 9 9 9 8 8 7 6 5 3 3 2 2 2 2 2 3 4 5 6 7 7 7 7 7 7 8 8 9 9 9 9
1 1 1 0 1 2 3 2 2 4 4 4 3 3 4 5 4 5 4 3 5 6 8 7 6 5 4 4 6 4 5 5 4 3 3 4 5 5 4 4 6 6 6 6 6 4 3 3 5 6 7 8 9 9 9 9 9 9 9 8 7 6 5 4 4 3 2 2 1 1 2 3 4 5 6 6 7 7 7 7 8 8 8 8 8 9 9
1 1 1 1 3 3 1 1 4 4 5 5 5 5 5 5 4 4 4 5 5 5 5 2 2 3 2 4 3 4 4 5 5 3 6 9 8 7 7 9 7 7 6 4 5 4 1 4 5 7 7 8 9 9 10 10 9 8 8 7 6 6 5 5 4 4 2 1 1 2 3 4 4 5 6 7 7 8 8 8 7 8 8 7 7 8 8
1 2 2 2 4 2 3 6 6 5 6 6 6 5 5 5 4 5 4 4 6 7 6 6 6 3 2 2 1 2 2 4 7 9 7 8 6 8 10 10 8 6 7 4 2 2 2 5 5 6 8 9 9 10 10 10 10 8 8 7 7 6 5 5 5 4 3 2 2 2 3 3 4 6 6 6 6 7 8 7 6 6 7 7 7 8 8
1 2 3 3 3 3 4 3 3 2 1 3 4 3 3 4 4 4 3 4 7 7 7 5 5 4 2 3 6 3 2 2 5 7 10 8 6 9 9 9 8 7 6 5 3 3 3 4 5 8 9 10 11 11 10 10 9 8 8 7 7 6 6 5 4 4 3 3 2 2 3 4 5 5 5 6 7 6 6 6 5 6 7 7 7 8 9
Wind_Direction
338 338 340 343 346 346 345 348 349 352 345 341 359 304 236 234 44 70 35 360 252 267 148 127 188 82 86 162 119 357 101 10 48 15 3 51 347 76 44 20 198 65 19 98 105 48 95 349 77 98 99 76 39 18 349 337 267 255 159 203 119 258 241 213 258 304 79 103 123 220 233 232 230 225 232 214 219 219 229 229 228 230 206 222 210 230 118
338 337 340 345 348 346 345 347 352 353 4 336 308 282 348 5 121 135 124 243 259 260 207 180 118 117 129 152 93 64 45 19 50 38 43 12 36 41 54 90 31 63 356 50 91 352 152 65 136 129 53 94 25 13 356 342 294 320 22 312 103 240 157 278 212 196 180 182 185 203 201 221 231 227 213 236 227 222 230 234 225 235 219 237 239 239 126
338 337 341 346 348 347 344 347 348 353 354 341 298 318 342 272 108 261 111 191 250 279 21 320 146 119 146 151 137 155 112 38 24 26 45 22 23 306 66 28 22 72 16 104 100 66 340 136 35 62 94 87 57 61 359 355 344 355 11 324 319 254 278 251 230 202 186 190 193 192 188 204 216 231 227 214 234 234 226 219 198 241 226 236 237 243 91
338 337 341 347 349 346 345 345 347 349 353 331 262 299 264 210 219 147 168 174 150 82 342 330 309 143 163 154 98 258 116 121 76 331 71 18 45 38 23 98 306 97 197 97 93 94 73 274 137 203 131 126 101 26 4 18 4 18 336 287 248 259 208 272 303 314 291 2 37 24 303 173 211 194 223 210 223 235 233 239 230 220 226 228 229 255 160
337 338 342 346 348 346 345 346 345 347 349 336 292 265 288 314 261 161 179 157 196 107 178 164 227 184 296 168 149 148 65 88 104 1 59 39 24 48 11 8 266 66 245 103 118 27 103 99 130 65 51 74 55 68 354 30 36 313 252 255 278 237 216 103 34 36 39 41 357 28 356 199 189 205 206 218 216 220 228 227 236 207 237 241 224 181 222
339 340 342 347 348 347 347 346 344 344 347 317 259 284 7 243 86 318 13 307 159 202 133 334 165 110 228 84 241 144 155 157 102 119 67 17 28 312 79 37 39 22 26 233 162 108 104 96 100 142 58 254 171 197 142 22 24 309 33 301 270 271 219 79 272 80 82 87 92 108 114 95 126 152 188 205 209 210 226 230 236 232 227 251 164 184 223
341 341 342 346 348 348 349 348 346 343 339 322 272 296 89 334 79 33 316 248 67 16 35 292 196 157 219 126 228 177 172 99 54 11 49 32 41 355 158 30 52 53 35 315 112 6 223 126 83 16 62 24 307 12 182 87 7 3 15 23 19 284 200 22 347 92 84 90 114 149 141 120 103 97 94 47 209 218 229 245 252 234 267 286 212 214 229
337 339 341 345 348 350 352 350 349 344 338 309 292 30 316 44 320 136 174 264 83 95 176 177 196 170 151 219 117 67 140 113 125 73 354 55 69 342 100 76 62 71 63 80 102 53 25 36 108 89 300 139 13 77 26 346 352 356 16 339 49 290 151 303 258 191 84 98 124 138 146 138 100 69 49 40 117 185 185 227 193 230 225 255 261 213 185
337 339 342 345 347 352 355 355 356 346 343 350 23 54 13 16 10 330 295 200 83 204 174 185 201 170 184 202 144 174 127 104 85 84 37 31 78 68 77 70 86 73 83 76 74 54 44 37 60 52 3 48 34 332 37 346 344 354 2 6 338 294 188 238 262 229 121 85 117 127 135 133 99 49 29 21 13 105 85 216 35 266 218 222 198 208 193
341 341 343 344 347 353 358 2 0 355 331 333 356 39 355 276 189 254 294 245 106 232 150 178 204 200 94 8 144 186 130 120 131 111 66 64 47 47 47 37 26 94 74 60 44 35 35 49 53 54 75 72 72 46 39 21 9 355 354 339 324 345 292 225 217 209 204 75 336 126 171 187 161 33 15 355 359 7 325 167 63 323 323 235 235 18 24
345 343 343 344 345 351 1 5 8 5 356 25 354 28 10 3 344 295 255 249 164 220 207 176 238 59 141 142 140 148 136 134 94 315 121 147 95 51 355 355 350 83 54 33 15 13 64 85 98 119 106 91 77 78 74 49 41 15 353 313 349 298 301 226 318 226 215 356 337 294 220 209 169 46 10 10 14 6 353 16 3 40 352 40 28 34 103
350 339 341 342 343 350 358 7 10 18 7 350 319 327 21 325 275 268 281 239 154 169 227 178 86 143 187 153 163 150 148 152 110 45 118 103 91 66 317 107 266 109 70 47 127 118 114 122 127 118 95 94 84 69 37 30 43 34 16 354 321 304 285 230 312 222 215 254 265 231 228 134 89 82 43 11 1 358 352 11 17 30 31 17 39 59 174
352 340 339 341 342 348 355 5 6 13 11 346 310 333 13 348 298 324 309 281 195 185 202 141 115 148 158 157 145 113 102 106 106 96 107 123 122 104 32 19 26 71 334 106 173 194 214 130 106 4 84 306 299 309 47 39 27 25 28 13 334 327 257 234 229 245 173 228 210 234 173 72 122 51 23 5 262 353 306 189 65 53 12 4 17 67 131
350 342 340 340 341 347 352 358 2 3 8 347 309 316 338 330 322 311 324 287 181 106 17 129 165 165 175 160 135 128 124 113 105 106 105 64 86 77 86 39 46 358 345 237 203 218 209 206 210 209 188 225 216 233 66 3 33 13 14 17 349 333 290 249 220 183 234 219 211 209 122 158 89 53 25 6 5 346 350 17 57 12 358 353 19 72 130
346 344 339 339 341 347 349 357 360 356 1 343 298 288 305 333 312 316 311 286 240 126 226 227 145 159 158 143 144 142 143 135 143 106 94 115 100 56 37 45 21 346 200 241 203 204 260 259 228 240 190 233 236 104 167 174 96 40 2 13 346 339 307 10 257 187 233 229 216 197 185 223 100 55 5 349 339 328 297 290 94 16 9 349 18 81 146
341 341 337 341 341 346 347 355 358 352 3 342 302 303 303 352 302 275 297 301 305 196 129 36 50 155 150 146 153 169 149 164 111 142 144 127 103 142 104 51 60 261 208 214 279 232 217 226 236 239 253 39 56 264 150 332 190 93 30 345 356 265 276 277 251 206 214 223 228 213 221 110 29 9 348 346 333 304 289 242 103 25 2 2 356 67 148
338 336 334 338 341 342 342 349 351 356 358 8 333 308 315 37 318 320 302 260 256 22 60 67 155 148 146 138 163 167 179 145 178 182 152 139 111 71 119 103 109 243 204 223 186 214 194 222 255 260 90 55 237 23 97 295 304 114 58 55 53 277 206 221 220 228 216 224 227 222 32 82 21 353 343 344 6 309 242 221 139 11 346 335 352 96 165
334 334 331 335 339 338 337 345 350 351 353 357 323 294 287 81 309 300 265 285 284 110 66 73 213 183 157 65 130 82 143 129 140 124 66 111 175 170 69 254 173 114 281 256 203 226 216 210 203 216 133 75 357 250 286 37 350 10 357 353 6 20 112 268 250 219 158 251 214 136 115 71 2 342 331 337 22 293 240 255 23 347 337 322 314 97 153
329 329 328 333 336 335 335 341 347 352 353 356 327 254 235 278 328 289 292 274 273 129 82 65 13 13 43 325 62 99 7 359 10 222 126 180 111 58 319 64 316 169 203 228 234 231 203 118 327 294 162 147 221 64 99 208 43 326 315 265 177 128 303 154 257 262 233 213 220 172 75 37 326 330 321 324 267 227 27 26 321 319 324 324 307 10 148
324 325 325 330 335 332 332 339 341 350 347 358 341 302 326 297 316 329 313 319 321 83 95 74 339 72 47 332 154 166 152 178 80 311 299 44 129 207 211 190 155 253 158 244 214 16 265 159 124 180 243 140 123 34 174 88 345 349 14 346 323 20 302 55 51 354 230 239 221 201 191 48 357 325 260 11 346 40 330 327 331 336 335 315 302 287 142
321 321 321 326 331 329 329 334 335 347 346 347 339 307 268 158 269 308 284 287 303 184 122 72 359 56 29 36 32 26 355 42 106 310 68 34 61 255 256 46 60 289 67 229 258 167 264 156 178 235 12 346 113 227 105 120 136 104 319 357 30 1 286 73 80 13 303 214 105 52 23 358 1 357 40 10 9 331 327 322 333 342 341 342 309 337 107
318 319 318 322 327 325 327 332 336 343 343 343 324 284 265 106 65 12 306 276 280 358 39 36 352 25 51 34 24 10 13 36 36 1 311 115 170 315 10 86 90 328 50 277 192 159 211 355 55 218 186 149 194 336 67 228 154 95 154 274 203 27 20 359 18 34 3 43 76 74 48 26 34 27 37 15 355 354 335 330 317 332 357 349 309 29 351
313 315 316 319 323 323 328 331 334 337 339 344 333 304 312 331 340 350 264 257 217 266 199 158 159 137 123 73 57 34 47 18 5 19 0 312 153 211 242 208 140 69 87 304 329 355 67 208 211 359 177 147 319 144 181 299 70 170 149 48 41 71 349 301 288 94 99 72 58 94 66 42 55 59 37 26 18 19 4 6 0 11 349 345 4 345 347
308 310 311 316 320 323 325 328 330 326 328 337 325 309 304 323 317 315 240 251 279 154 137 154 186 137 104 98 67 79 74 50 11 347 338 309 285 146 179 40 71 165 128 30 334 321 61 349 39 274 258 71 281 238 215 192 89 81 162 151 128 66 298 257 167 121 210 106 99 74 62 49 43 54 54 48 37 31 20 25 19 14 4 19 24 34 34
303 304 304 310 315 316 319 325 325 310 324 331 319 278 260 263 283 323 298 250 188 206 169 149 74 52 52 69 134 98 45 348 302 281 245 219 274 294 41 87 45 339 113 103 230 203 220 215 166 215 202 87 292 283 52 293 125 267 261 117 173 142 27 267 81 201 360 99 114 101 84 74 53 39 41 39 38 36 35 31 33 29 34 33 41 61 92
297 297 297 300 308 309 316 321 319 309 314 326 311 306 300 321 348 285 266 275 295 287 191 169 117 104 142 160 62 12 335 334 39 70 35 348 293 344 123 129 107 57 95 127 236 270 112 204 303 305 259 127 296 307 84 16 41 61 314 59 37 31 230 83 199 196 103 124 137 129 111 88 72 62 53 43 35 38 40 38 39 39 43 50 53 52 65
290 290 292 295 301 309 311 316 313 306 306 315 308 292 279 286 295 302 326 337 270 168 238 175 129 110 115 89 41 19 360 322 135 89 80 87 110 118 124 124 124 139 150 126 56 49 242 351 267 164 352 65 281 18 56 185 228 201 193 109 170 216 205 94 210 212 182 106 97 151 233 138 89 59 42 34 34 41 44 42 41 40 41 38 55 60 49
287 283 286 290 296 300 307 311 309 307 318 311 281 275 260 267 297 306 295 297 309 279 206 154 165 130 102 89 39 35 52 172 96 89 91 93 97 104 115 127 147 161 155 204 182 197 219 232 147 65 100 123 216 160 249 73 241 237 231 125 266 292 39 280 279 333 65 87 90 61 71 77 59 58 43 38 27 38 43 41 41 41 42 40 39 50 72
284 282 279 286 291 294 302 311 308 306 328 309 279 250 230 233 237 222 263 288 284 289 268 94 96 161 185 81 20 109 77 140 120 108 107 104 99 94 85 75 70 86 111 77 36 43 324 54 38 202 89 29 297 163 175 208 210 227 92 94 71 57 25 39 57 97 101 81 86 49 34 62 76 62 58 49 24 16 39 39 41 40 37 40 48 48 52
274 273 276 275 278 285 297 305 302 308 322 301 254 233 222 164 195 199 26 320 296 303 222 170 180 117 93 161 101 96 120 126 120 119 112 103 94 84 84 98 87 29 27 34 307 109 82 98 90 88 80 328 275 105 235 232 241 104 119 109 95 110 77 59 17 330 106 95 86 70 65 75 81 93 78 64 47 18 25 27 21 13 23 23 40 52 52
263 260 263 264 270 283 292 294 289 310 283 272 248 214 205 184 129 170 110 289 325 289 282 242 163 117 149 71 150 97 118 124 119 107 95 93 88 91 81 103 78 312 159 125 110 81 199 158 154 109 126 30 314 247 271 226 230 140 146 143 142 138 127 87 74 72 95 104 89 83 119 92 104 152 98 49 41 30 27 27 27 22 6 341 23 28 46
261 258 251 258 273 287 291 280 281 292 279 265 245 314 16 7 33 16 13 299 291 258 228 166 145 190 155 158 128 116 112 128 142 137 101 109 114 93 89 345 81 29 1 61 95 192 146 63 234 151 196 94 267 260 253 251 263 122 144 157 157 143 132 144 129 109 86 83 188 186 178 118 49 8 41 29 25 22 15 11 16 9 359 343 1 350 18
251 241 248 263 278 283 280 271 248 279 290 314 313 281 265 262 270 267 252 256 242 264 305 228 194 153 190 131 133 148 159 180 179 189 126 1 126 191 139 131 133 121 54 248 170 298 83 218 188 193 104 162 242 233 252 251 49 121 153 151 158 157 160 144 138 126 129 112 300 286 211 117 73 65 39 22 27 19 9 0 359 342 344 351 3 5 14
246 246 258 271 279 282 266 253 257 265 255 265 228 181 132 168 189 213 255 234 285 301 270 238 169 192 147 133 199 139 227 214 172 204 179 86 35 239 158 191 179 241 96 303 103 203 152 234 225 122 146 205 247 258 248 190 114 148 151 158 157 161 158 161 163 161 148 131 84 59 62 68 78 104 84 39 18 18 0 356 345 343 341 326 320 345 353
235 246 258 271 271 283 154 277 254 224 219 212 186 94 92 50 15 146 210 288 226 180 198 201 256 171 158 177 215 159 196 225 194 198 240 125 268 254 185 237 174 245 117 285 235 258 208 183 59 224 212 146 218 228 249 142 161 155 160 160 167 167 170 175 171 163 154 146 147 119 123 136 152 115 59 12 16 8 351 346 352 335 326 342 345 310 335
234 246 262 158 133 212 225 184 231 209 206 202 130 104 121 157 172 199 237 248 306 292 208 177 205 208 195 189 195 143 193 201 167 152 142 154 180 83 257 269 237 121 52 247 252 214 225 126 229 237 130 220 221 234 63 140 173 175 178 178 173 182 189 199 166 156 150 152 145 144 148 154 148 120 126 225 337 349 340 326 339 330 325 319 328 334 291
245 234 158 172 220 190 202 177 148 238 65 48 73 119 179 220 173 213 207 223 175 292 279 183 208 213 217 195 79 136 194 194 174 197 179 211 210 151 214 221 257 114 205 213 213 222 112 110 270 271 219 231 242 96 141 168 189 183 187 180 173 176 159 145 152 159 159 164 168 174 177 184 165 173 217 286 304 304 300 306 315 311 306 301 305 306 323
193 170 205 197 186 177 151 172 160 77 96 34 223 182 177 217 173 153 186 208 102 279 215 243 236 143 101 229 174 126 211 173 176 205 182 173 198 170 213 248 70 224 237 215 118 55 133 205 234 259 264 243 263 177 175 178 180 186 181 170 166 169 169 161 168 180 183 178 187 187 186 198 211 212 278 288 289 287 289 295 291 287 282 283 285 294 292
175 189 211 203 215 171 145 115 69 45 252 164 236 211 135 200 183 186 176 157 165 210 167 240 211 190 197 210 121 128 305 192 186 204 212 151 242 178 201 225 137 244 235 241 154 192 241 210 210 233 259 224 225 221 200 177 160 161 164 164 165 168 168 172 183 195 205 222 168 148 193 209 242 264 266 271 274 267 266 270 270 276 275 276 275 272 274
185 190 180 179 198 102 77 103 128 199 204 187 186 244 141 179 228 180 129 202 200 171 165 213 188 183 214 219 169 165 156 232 198 200 183 147 237 281 118 273 113 251 243 253 121 173 268 274 237 247 273 221 193 126 159 175 169 160 157 154 159 162 167 170 169 174 166 120 132 146 172 212 245 266 278 284 285 284 280 275 274 273 271 270 271 273 271
213 205 201 167 113 123 121 143 179 220 201 178 153 186 125 175 222 113 188 208 213 155 208 209 159 189 180 231 214 175 122 286 24 1 184 148 84 272 214 210 89 262 250 247 122 216 228 252 255 249 277 89 123 140 151 160 168 157 153 151 153 157 162 163 166 169 174 171 174 178 209 243 260 271 278 281 279 276 278 280 280 278 278 278 273 266 266
151 341 27 53 105 115 144 165 195 171 138 242 198 165 200 158 145 201 233 216 189 166 171 187 182 190 174 196 174 128 130 322 290 209 196 174 159 248 184 121 179 249 245 74 105 219 235 247 241 252 227 137 123 135 157 160 159 159 155 157 156 160 165 168 165 161 176 182 204 241 258 264 278 281 279 277 277 278 279 278 277 277 277 275 274 272 271
273 253 260 159 147 159 178 155 156 240 156 165 163 133 190 195 204 203 180 218 345 233 138 199 82 77 74 137 110 16 95 157 213 162 234 145 119 238 208 187 198 228 185 117 228 227 217 232 248 258 117 131 142 147 156 159 153 155 153 155 157 161 165 165 166 158 166 201 252 271 285 287 288 284 280 275 274 276 275 275 275 278 276 276 274 274 272
190 213 192 163 154 134 200 152 176 138 38 234 177 180 188 197 177 196 213 177 166 179 159 179 168 189 161 189 173 137 153 160 246 173 108 130 200 179 209 218 226 67 78 231 226 236 242 248 253 279 112 128 133 147 148 151 151 146 149 152 152 154 157 152 158 177 187 191 224 268 289 284 283 287 290 292 290 288 290 290 290 287 282 279 276 272 272
164 159 168 154 129 117 133 14 238 215 219 181 231 216 179 207 170 192 204 120 193 167 163 186 167 191 153 143 147 151 215 160 130 232 164 178 216 203 215 235 133 182 228 240 224 243 234 256 236 229 180 169 154 153 155 157 159 159 154 154 160 161 164 168 167 170 179 199 252 273 281 293 305 300 297 295 295 293 289 289 288 285 281 277 274 272 269
184 158 158 129 32 268 224 143 147 217 240 178 198 220 221 252 202 167 101 166 157 149 169 163 172 165 155 170 221 154 153 161 175 208 159 198 223 215 174 36 257 246 236 243 244 249 249 266 257 185 159 162 152 151 155 157 160 157 158 163 165 164 163 159 154 164 169 195 226 272 289 288 288 292 295 298 296 292 290 287 286 282 281 278 272 273 275
161 193 261 235 127 173 226 190 200 219 153 184 213 220 256 84 73 88 114 170 162 157 148 159 164 170 164 165 167 146 184 181 213 154 199 207 213 93 49 238 232 221 231 234 245 248 258 251 236 110 126 142 146 151 155 158 161 165 170 159 158 159 156 157 160 166 149 160 267 264 270 283 298 301 300 298 297 297 292 289 284 280 275 274 276 275 275
184 329 272 188 179 171 195 215 277 197 210 222 140 162 62 163 180 154 144 179 143 150 156 152 157 145 169 129 263 206 173 203 217 175 220 247 203 243 226 232 240 237 229 240 241 241 253 247 136 123 139 149 153 154 159 162 166 166 160 158 159 158 161 159 156 147 162 219 234 250 277 294 302 303 302 301 300 296 293 291 289 286 282 281 278 277 274
293 207 220 208 212 187 212 89 210 222 162 172 170 179 174 189 172 138 140 158 168 167 164 183 164 182 167 162 213 185 209 186 223 193 165 223 221 200 191 232 222 235 227 232 270 272 273 84 101 125 142 152 155 159 159 162 162 164 163 163 159 153 151 149 144 149 178 197 199 296 324 324 312 304 302 301 296 297 305 303 295 288 283 281 280 280 279
224 180 226 223 201 199 222 194 245 220 163 162 178 184 183 185 160 135 151 163 152 152 159 139 194 239 138 169 200 227 240 191 226 199 220 225 227 232 240 249 240 237 248 209 232 252 226 122 132 141 153 154 157 157 157 157 158 159 158 152 147 148 150 150 153 159 165 134 45 9 335 313 306 304 301 299 302 304 296 290 288 285 284 284 286 286 283
270 288 267 286 289 93 165 202 205 199 177 175 176 181 184 180 170 151 174 170 163 172 180 193 177 178 150 195 185 189 223 203 224 224 229 233 227 240 244 244 249 253 266 281 271 273 135 142 157 155 154 157 157 158 154 152 154 153 148 146 146 144 144 152 155 153 140 114 78 18 328 317 310 304 299 297 293 291 291 285 283 291 292 291 287 283 280
215 219 214 175 225 255 275 325 316 311 115 161 183 153 190 185 158 131 158 191 181 202 201 193 195 198 179 204 205 231 89 180 237 236 238 234 226 243 242 250 262 267 275 262 221 174 157 158 159 160 160 158 155 153 149 149 149 149 150 151 150 152 154 156 151 143 122 103 63 22 351 341 326 308 299 286 285 287 294 305 311 304 299 296 296 291 283